Weather History for Minneapolis Crystal, MN

Change the Weather History Date:

Monday, January 20, 2014

  Actual Average Record
Temperature  
Mean Temperature 14 °F -  
Max Temperature 30 °F 21 °F 35 °F (1992)
Min Temperature -5 °F 6 °F -14 °F (2008)
Degree Days  
Heating Degree Days 51    
Moisture  
Dew Point 5 °F    
Average Humidity 65    
Maximum Humidity 79    
Minimum Humidity 46    
Precipitation  
Precipitation 0.00 in - - ()
Sea Level Pressure  
Sea Level Pressure 30.05 in    
Wind  
Wind Speed 11 mph (North)    
Max Wind Speed 18 mph    
Max Gust Speed 26 mph    
Visibility 8 miles    
Events Snow    
Averages and records for this station are not official NWS values.
T = Trace of Precipitation, MM = Missing Value Source: NWS Daily Summary

Daily Weather History Graph

Daily Weather History Graph

Search for Another Location

Airport:

Trip Planner

Search our weather history database for the weather conditions in past years. The results will help you decide how hot, cold, wet, or windy it might be!

Date:

Astronomy

Jan. 20, 2014 Rise Set
Actual Time 7:44 AM CST 5:04 PM CST
Civil Twilight 7:12 AM CST 5:36 PM CST
Nautical Twilight 6:36 AM CST 6:12 PM CST
Astronomical Twilight 6:01 AM CST 6:47 PM CST
Moon 9:54 PM CST (1/20) 9:31 AM CST (1/20)
Length of Visible Light 10h 24m
Length of Day
9h 19m
Waning Gibbous, 82% of the Moon is Illuminated
Jan 20
Waning Gibbous
Jan 23
Last Quarter
Jan 30
New
Feb 6
First Quarter
Feb 14
Full

Hourly Weather History & Observations

Time (CST) Temp. Windchill Dew Point Humidity Pressure Visibility Wind Dir Wind Speed Gust Speed Precip Events Conditions
12:44 AM 30.2 °F 24.3 °F 23.0 °F 75% 29.70 in 10.0 mi WSW 5.8 mph - N/A   Overcast
12:53 AM 30.0 °F 23.2 °F 23.0 °F 75% 29.73 in 10.0 mi West 6.9 mph - N/A   Overcast
1:53 AM 30.0 °F 22.4 °F 24.1 °F 79% 29.73 in 10.0 mi West 8.1 mph - N/A   Overcast
2:53 AM 30.0 °F 21.1 °F 23.0 °F 75% 29.75 in 10.0 mi West 10.4 mph - N/A   Overcast
3:53 AM 28.9 °F 19.2 °F 23.0 °F 78% 29.77 in 10.0 mi NW 11.5 mph - N/A   Overcast
4:53 AM 28.9 °F 18.2 °F 21.0 °F 72% 29.80 in 10.0 mi NW 13.8 mph 26.5 mph N/A   Overcast
5:53 AM 27.0 °F 16.1 °F 21.0 °F 78% 29.82 in 10.0 mi North 12.7 mph - N/A   Overcast
6:45 AM 24.8 °F 13.4 °F 17.6 °F 74% 29.83 in 10.0 mi NNE 12.7 mph - N/A   Overcast
6:53 AM 24.1 °F 12.0 °F 18.0 °F 77% 29.87 in 10.0 mi NNE 13.8 mph - N/A   Overcast
7:53 AM 21.0 °F 8.6 °F 15.1 °F 78% 29.89 in 10.0 mi NNE 12.7 mph - N/A   Overcast
8:29 AM 19.4 °F 7.2 °F 8.6 °F 63% 29.89 in 10.0 mi NNE 11.5 mph 21.9 mph N/A   Overcast
8:53 AM 18.0 °F 4.8 °F 8.1 °F 65% 29.96 in 10.0 mi NNE 12.7 mph - N/A   Overcast
9:19 AM 17.6 °F 5.7 °F 8.6 °F 68% 29.94 in 2.0 mi NNE 10.4 mph - 0.00 in Snow Light Snow
9:26 AM 17.6 °F 5.0 °F 8.6 °F 68% 29.94 in 3.0 mi NNE 11.5 mph - 0.00 in Snow Light Snow
9:53 AM 16.0 °F 2.3 °F 9.0 °F 74% 30.01 in 4.0 mi NNE 12.7 mph - 0.00 in Snow Light Snow
10:10 AM 15.8 °F 3.4 °F 8.6 °F 73% 29.98 in 1.8 mi NNE 10.4 mph - 0.00 in Snow Light Snow
10:22 AM 14.0 °F 2.0 °F 6.8 °F 73% 29.99 in 3.0 mi North 9.2 mph - 0.00 in Snow Light Snow
10:53 AM 14.0 °F 0.5 °F 5.0 °F 67% 30.06 in 3.0 mi NNE 11.5 mph 18.4 mph 0.00 in Snow Light Snow
11:53 AM 12.0 °F -3.4 °F 3.0 °F 67% 30.07 in 7.0 mi North 13.8 mph - 0.00 in   Overcast
12:53 PM 10.0 °F -5.9 °F -0.0 °F 64% 30.10 in 8.0 mi North 13.8 mph - 0.00 in   Overcast
1:53 PM 10.0 °F -5.2 °F -0.0 °F 64% 30.12 in 9.0 mi North 12.7 mph - N/A   Overcast
2:53 PM 9.0 °F -7.3 °F -2.9 °F 59% 30.18 in 10.0 mi North 13.8 mph 21.9 mph N/A   Mostly Cloudy
3:53 PM 8.1 °F -9.6 °F -4.0 °F 58% 30.23 in 10.0 mi NNE 16.1 mph 23.0 mph N/A   Overcast
4:53 PM 7.0 °F -12.1 °F -7.1 °F 53% 30.28 in 10.0 mi North 18.4 mph 24.2 mph N/A   Overcast
5:53 PM 6.1 °F -11.6 °F -9.9 °F 48% 30.33 in 10.0 mi North 15.0 mph 21.9 mph N/A   Overcast
6:53 PM 3.9 °F -14.3 °F -13.0 °F 46% 30.38 in 10.0 mi North 15.0 mph 23.0 mph N/A   Clear
7:53 PM 1.9 °F -15.5 °F -14.1 °F 47% 30.42 in 10.0 mi North 12.7 mph - N/A   Clear
8:53 PM 1.0 °F -17.3 °F -15.0 °F 47% 30.45 in 10.0 mi North 13.8 mph 21.9 mph N/A   Clear
9:53 PM -0.0 °F -18.7 °F -16.1 °F 47% 30.47 in 10.0 mi North 13.8 mph - N/A   Clear
10:53 PM -2.0 °F -16.6 °F -17.0 °F 49% 30.49 in 10.0 mi NNW 8.1 mph - N/A   Clear
11:53 PM -5.1 °F -21.5 °F -17.0 °F 57% 30.51 in 10.0 mi NNW 9.2 mph - N/A   Clear